Flag for Germany Weather past 2 weeks in Mörfelden-Walldorf, Hesse, Germany

Now
43 °F

Scattered clouds.


Feels Like: 36 °F
Forecast: 33 / 54 °F
Wind: 12 mph from Southwest

Location: Frankfurt-M-Flughafen Airport

Current Time: Mar 27, 2015 at 8:43:49 AM

Latest Report: Mar 27, 2015 at 8:20 AM


Visibility: N/A

Pressure: 30.01 "Hg

Humidity: 81%

Dew point: 37 °F

Location of Mörfelden-WalldorfLocation

Historic Weather in Mörfelden-Walldorf — Graph

°F

Mörfelden-Walldorf temperature yesterday

Maximum temperature yesterday: 52 °F (at 1:50 PM)
Minimum temperature yesterday: 41 °F (at 7:50 PM)
Average temperature yesterday: 46 °F

Past Weeks' High & Low Weather Summary

 TemperatureHumidityPressure
High64 °F (Mar 18, 2:50 PM)100% (Mar 21, 5:50 AM)30.45 "Hg (Mar 21, 5:50 AM)
Low28 °F (Mar 24, 3:50 AM)32% (Mar 26, 4:50 PM)29.59 "Hg (Mar 25, 2:20 PM)
Average45 °F69%30.10 "Hg
* Reported Mar 12 7:20 AM — Mar 27 7:20 AM, Mörfelden-Walldorf, Weather by CustomWeather, © 2015

Note: Actual official high and low records may vary slightly from our data, if they occured in-between our weather recording intervals... More about our weather records

Advertising

Mörfelden-Walldorf weather history for previous 24 hours

 ConditionsComfort  
Time TempWeatherWind HumidityBarometerVisibility
7:20 AM
Fri, Mar 27
43 °FScattered clouds.6 mph81%29.98 "HgN/A
6:50 AM41 °FPassing clouds.7 mph81%29.95 "HgN/A
6:20 AM39 °FPassing clouds.9 mph87%29.95 "HgN/A
5:50 AM41 °FPassing clouds.13 mph87%29.92 "HgN/A
5:20 AM41 °FClear.12 mph87%29.92 "Hg10 mi
4:20 AM41 °FPassing clouds.9 mph87%29.89 "HgN/A
3:50 AM41 °FPassing clouds.8 mph87%29.89 "HgN/A
3:20 AM43 °FPassing clouds.7 mph87%29.89 "HgN/A
2:50 AM43 °FPassing clouds.12 mph87%29.86 "HgN/A
2:20 AM43 °FPartly cloudy.14 mph87%29.86 "HgN/A
1:50 AM43 °FPassing clouds.12 mph81%29.86 "HgN/A
1:20 AM43 °FPassing clouds.12 mph87%29.86 "HgN/A
12:50 AM43 °FPartly cloudy.14 mph81%29.86 "HgN/A
12:20 AM43 °FPartly cloudy.12 mph87%29.83 "HgN/A
11:50 PM
Thu, Mar 26
43 °FPassing clouds.10 mph87%29.83 "HgN/A
11:20 PM41 °FOvercast.8 mph93%29.83 "HgN/A
10:20 PM41 °FLight rain. Overcast.6 mph93%29.83 "Hg5 mi
9:50 PM41 °FLight rain. Passing clouds.7 mph93%29.83 "Hg5 mi
9:20 PM41 °FLight rain. Partly cloudy.6 mph93%29.83 "HgN/A
8:50 PM41 °FLight rain. Passing clouds.6 mph87%29.83 "HgN/A
8:20 PM41 °FLight rain. Partly cloudy.6 mph87%29.83 "HgN/A
7:50 PM41 °FLight rain. Passing clouds.10 mph87%29.83 "HgN/A
7:20 PM43 °FLight rain. Passing clouds.17 mph81%29.83 "HgN/A
6:50 PM45 °FLight rain. Passing clouds.21 mph66%29.80 "HgN/A
6:20 PM50 °FBroken clouds.16 mph43%29.77 "HgN/A
5:50 PM52 °FSunny.12 mph32%29.77 "Hg10 mi
5:20 PM52 °FSunny.13 mph32%29.74 "Hg10 mi
4:50 PM52 °FSunny.16 mph32%29.74 "Hg10 mi
4:20 PM52 °FSunny.13 mph35%29.74 "Hg10 mi
3:50 PM52 °FSunny.14 mph41%29.74 "Hg10 mi
3:20 PM52 °FSunny.14 mph41%29.74 "Hg10 mi
2:50 PM52 °FBroken clouds.10 mph50%29.77 "HgN/A
2:20 PM50 °FBroken clouds.13 mph50%29.77 "HgN/A
1:50 PM52 °FBroken clouds.12 mph50%29.77 "HgN/A
1:20 PM50 °FBroken clouds.13 mph58%29.80 "HgN/A
12:50 PM48 °FBroken clouds.13 mph62%29.80 "HgN/A
12:20 PM48 °FBroken clouds.12 mph62%29.80 "HgN/A
11:50 AM46 °FBroken clouds.9 mph66%29.80 "HgN/A
11:20 AM46 °FBroken clouds.7 mph66%29.80 "HgN/A
10:50 AM45 °FBroken clouds.8 mph76%29.80 "HgN/A
10:20 AM45 °FBroken clouds.8 mph76%29.83 "HgN/A
9:50 AM43 °FPartly sunny.9 mph81%29.83 "HgN/A
9:20 AM43 °FBroken clouds.9 mph81%29.80 "HgN/A
8:50 AM45 °FLight rain. Partly sunny.8 mph76%29.80 "Hg6 mi
8:20 AM45 °FLight rain. Partly sunny.9 mph76%29.80 "Hg4 mi
Weather by CustomWeather, © 2015

See weather overviewHow to use our weather pages